Islamorada, Florida Weather Center

Moon Phase Calendar



Online Cameras

 


      

Current Conditions in Islamorada
9/21/2021 9:50:11 AM

85°F
Feels Like 98
Clouds
Humidity
81%
Pressure
30.03"
Wind
11.7 mph (ESE)
Dew Point
79°F
UV Index
3/10 (Moderate)
Visibility
6 mi

Hourly Forecast

Date & Time Tue, Sep 21
9:00 AM
Tue, Sep 21
10:00 AM
Tue, Sep 21
11:00 AM
Tue, Sep 21
12:00 PM
Tue, Sep 21
1:00 PM
Tue, Sep 21
2:00 PM
Tue, Sep 21
3:00 PM
Tue, Sep 21
4:00 PM
Tue, Sep 21
5:00 PM
Tue, Sep 21
6:00 PM
Tue, Sep 21
7:00 PM
Tue, Sep 21
8:00 PM
Tue, Sep 21
9:00 PM
Tue, Sep 21
10:00 PM
Tue, Sep 21
11:00 PM
Wed, Sep 22
12:00 AM
Wed, Sep 22
1:00 AM
Wed, Sep 22
2:00 AM
Wed, Sep 22
3:00 AM
Wed, Sep 22
4:00 AM
Wed, Sep 22
5:00 AM
Wed, Sep 22
6:00 AM
Wed, Sep 22
7:00 AM
Wed, Sep 22
8:00 AM
Wed, Sep 22
9:00 AM
Wed, Sep 22
10:00 AM
Wed, Sep 22
11:00 AM
Wed, Sep 22
12:00 PM
Wed, Sep 22
1:00 PM
Wed, Sep 22
2:00 PM
Wed, Sep 22
3:00 PM
Wed, Sep 22
4:00 PM
Wed, Sep 22
5:00 PM
Wed, Sep 22
6:00 PM
Wed, Sep 22
7:00 PM
Wed, Sep 22
8:00 PM
Wed, Sep 22
9:00 PM
Wed, Sep 22
10:00 PM
Wed, Sep 22
11:00 PM
Thu, Sep 23
12:00 AM
Thu, Sep 23
1:00 AM
Thu, Sep 23
2:00 AM
Thu, Sep 23
3:00 AM
Thu, Sep 23
4:00 AM
Thu, Sep 23
5:00 AM
Thu, Sep 23
6:00 AM
Thu, Sep 23
7:00 AM
Thu, Sep 23
8:00 AM
Condition
Rain

Clouds

Clouds

Clouds

Clouds

Clouds

Clouds

Rain

Rain

Rain

Rain

Clouds

Clouds

Clouds

Clouds

Clouds

Rain

Rain

Clouds

Clouds

Clouds

Rain

Rain

Rain

Rain

Rain

Rain

Rain

Rain

Rain

Rain

Rain

Rain

Clouds

Clouds

Clouds

Clouds

Clouds

Clouds

Clouds

Rain

Rain

Rain

Rain

Clouds

Clouds

Clouds

Clouds
Temperature 85°F85°F85°F85°F85°F85°F85°F85°F84°F83°F82°F82°F83°F84°F84°F84°F84°F84°F84°F84°F84°F83°F82°F82°F83°F82°F83°F83°F83°F83°F83°F83°F84°F84°F84°F84°F84°F84°F83°F82°F81°F82°F82°F82°F82°F82°F82°F82°F
Feels Like 96°F98°F96°F95°F94°F93°F92°F92°F90°F90°F88°F88°F90°F91°F91°F91°F92°F91°F91°F91°F90°F89°F89°F88°F89°F88°F89°F89°F89°F88°F88°F88°F88°F88°F88°F88°F89°F89°F88°F88°F86°F86°F86°F86°F86°F86°F86°F86°F
Cloudiness 99%99%99%99%97%94%95%97%98%99%99%99%100%100%100%100%100%100%99%93%87%89%92%93%100%100%100%100%100%100%100%100%100%99%95%95%99%99%100%95%88%82%25%30%32%34%37%43%
Visibility 6 mi6 mi6 mi6 mi6 mi6 mi6 mi6 mi6 mi6 mi6 mi6 mi6 mi6 mi6 mi6 mi6 mi6 mi6 mi6 mi6 mi6 mi6 mi6 mi6 mi6 mi6 mi6 mi6 mi6 mi6 mi6 mi6 mi6 mi6 mi6 mi6 mi6 mi6 mi6 mi6 mi6 mi6 mi6 mi6 mi6 mi6 mi6 mi
Precipitation 58%62%69%64%64%72%62%91%100%100%100%80%0%0%0%0%32%21%40%44%56%84%85%93%91%96%100%100%100%100%75%87%95%90%88%88%11%14%8%14%31%58%69%61%62%63%63%59%
Humidity 78%81%78%75%73%70%69%70%73%74%77%77%73%73%74%74%73%72%72%72%73%74%76%75%74%75%72%70%69%68%66%66%65%65%65%66%66%68%70%71%74%73%71%70%69%68%68%68%
Dew Point 78°F79°F78°F76°F75°F74°F74°F74°F74°F74°F74°F74°F74°F74°F75°F75°F74°F74°F74°F74°F74°F74°F74°F74°F74°F74°F73°F73°F72°F71°F71°F71°F71°F71°F71°F71°F71°F72°F72°F72°F72°F72°F71°F71°F71°F71°F71°F71°F
Pressure 30.03"30.03"30.03"30.03"30"30"29.97"29.94"29.97"29.97"29.97"29.97"29.97"29.97"30"29.97"29.97"29.94"29.91"29.91"29.91"29.91"29.94"29.94"29.97"29.97"29.97"29.94"29.94"29.91"29.91"29.88"29.88"29.88"29.88"29.88"29.88"29.91"29.91"29.88"29.88"29.88"29.85"29.85"29.85"29.85"29.88"29.88"
Wind Speed 13.5 mph11.7 mph10.6 mph9.9 mph9.1 mph8.1 mph7.2 mph7.4 mph8.2 mph11.3 mph17.8 mph17.6 mph18.2 mph18.8 mph16.7 mph14.8 mph13.2 mph12.5 mph12.9 mph13.4 mph12.9 mph10.9 mph8.4 mph7.3 mph7.4 mph7.6 mph8.3 mph7.4 mph6.1 mph4.1 mph2.6 mph4 mph4.8 mph4.8 mph4.9 mph5.9 mph7 mph9 mph7.8 mph6.9 mph5.8 mph5.7 mph4.8 mph4.6 mph4.4 mph3.7 mph3.1 mph3 mph
Wind
Direction
114°
ESE
114°
ESE
117°
ESE
118°
ESE
122°
ESE
123°
ESE
110°
ESE
102°
ESE
72°
ENE
51°
NE
29°
NNE
39°
NE
63°
ENE
75°
ENE
64°
ENE
63°
ENE
70°
ENE
76°
ENE
90°
E
96°
E
100°
E
102°
ESE
105°
ESE
102°
ESE
106°
ESE
103°
ESE
103°
ESE
117°
ESE
126°
SE
146°
SE
200°
SSW
238°
WSW
224°
SW
220°
SW
231°
SW
283°
WNW
297°
WNW
344°
NNW
358°
N
23°
NNE
26°
NNE
31°
NNE
34°
NE
39°
NE
48°
NE
42°
NE
47°
NE
46°
NE

Daily Forecast

Date High Low Precip. Humidity
Today
Sep 21

Rain
85 °F
82 °F
100%
73%
Wednesday
Sep 22

Rain
84 °F
82 °F
100%
69%
Thursday
Sep 23

Rain
84 °F
81 °F
62%
65%
Friday
Sep 24

Rain
84 °F
83 °F
49%
63%
Saturday
Sep 25

Rain
85 °F
83 °F
36%
62%
Sunday
Sep 26

Rain
84 °F
83 °F
36%
66%
Monday
Sep 27

Rain
84 °F
83 °F
34%
69%
Tuesday
Sep 28

Clouds
83 °F
83 °F
28%
63%
Wednesday
Sep 29

Rain
82 °F
79 °F
97%
69%
Thursday
Sep 30

Rain
82 °F
79 °F
40%
63%
Friday
Oct 1

Rain
83 °F
81 °F
33%
64%
Saturday
Oct 2

Rain
83 °F
82 °F
84%
71%
Sunday
Oct 3

Rain
83 °F
82 °F
89%
71%
Monday
Oct 4

Rain
83 °F
81 °F
61%
69%
Tuesday
Oct 5

Rain
82 °F
79 °F
100%
72%
Wednesday
Oct 6

Rain
81 °F
74 °F
100%
86%

Temperature 8-14 Day Outlook



Precipitation 8-14 Day Outlook




Quick Links
Islamorada, Florida News
Islamorada, Florida Photos
Islamorada, Florida Videos




About Us
Contact Us
Site Map
Search Site
Advertise With Us
   
Islamorada.CoastalTown.com
THE ISLAMORADA, FLORIDA WEBSITE

Copyright 2021, Coastal Town
Privacy    |    Legal